• en France
  • Liste des pays
  • À 7 jours
  • Température de l'eau
  • Carte satellitaire
  • Carte météo
  • Widgets météo
  • user-avatar
    Se connecter

    Météo par heure à Malanje

    Ce jour, 25 Septembre, Mardi

    Heure Température Précipitation Vent Pression Humidité
    00:00 +24°C° 0 mm 2 m/s 665 mmHg 61%
    01:00 +23°C° 0 mm 2 m/s 665 mmHg 66%
    02:00 +23°C° 0 mm 2 m/s 665 mmHg 71%
    03:00 +21°C° 0 mm 2 m/s 665 mmHg 75%
    04:00 +20°C° 0 mm 2 m/s 664 mmHg 80%
    05:00 +20°C° 0 mm 2 m/s 665 mmHg 79%
    06:00 +21°C° 0 mm 2 m/s 665 mmHg 78%
    07:00 +23°C° 0 mm 1 m/s 666 mmHg 73%
    08:00 +26°C° 0 mm 1 m/s 667 mmHg 61%
    09:00 +30°C° 0 mm 1 m/s 667 mmHg 48%
    10:00 +34°C° 0 mm 1 m/s 668 mmHg 36%
    11:00 +34°C° 0 mm 1 m/s 667 mmHg 33%
    12:00 +34°C° 0 mm 1 m/s 667 mmHg 30%
    13:00 +36°C° 0 mm 1 m/s 667 mmHg 26%
    14:00 +35°C° 0 mm 1 m/s 666 mmHg 26%
    15:00 +34°C° 0 mm 1 m/s 665 mmHg 26%
    16:00 +33°C° 0 mm 1 m/s 665 mmHg 26%
    17:00 +32°C° 0 mm 1 m/s 665 mmHg 29%
    18:00 +31°C° 0 mm 1 m/s 665 mmHg 31%
    19:00 +29°C° 0 mm 1 m/s 665 mmHg 34%
    20:00 +29°C° 0 mm 1 m/s 665 mmHg 38%
    21:00 +28°C° 0 mm 2 m/s 665 mmHg 42%
    22:00 +27°C° 0 mm 2 m/s 666 mmHg 46%
    23:00 +26°C° 0 mm 2 m/s 665 mmHg 53%

    Demain, 26 Septembre, Mercredi

    Heure Température Précipitation Vent Pression Humidité
    00:00 +25°C° 0 mm 2 m/s 665 mmHg 60%
    01:00 +24°C° 0 mm 2 m/s 665 mmHg 67%
    02:00 +23°C° 0 mm 2 m/s 664 mmHg 70%
    03:00 +21°C° 0 mm 2 m/s 664 mmHg 74%
    04:00 +21°C° 0 mm 2 m/s 664 mmHg 78%
    05:00 +22°C° 0 mm 1 m/s 665 mmHg 76%
    06:00 +23°C° 0 mm 1 m/s 665 mmHg 75%
    07:00 +23°C° 0 mm 1 m/s 666 mmHg 73%
    08:00 +27°C° 0 mm 1 m/s 667 mmHg 60%
    09:00 +31°C° 0 mm 1 m/s 668 mmHg 46%
    10:00 +35°C° 0 mm 1 m/s 669 mmHg 32%
    11:00 +35°C° 0 mm 1 m/s 668 mmHg 31%
    12:00 +35°C° 0 mm 1 m/s 667 mmHg 30%
    13:00 +35°C° 0 mm 1 m/s 666 mmHg 29%
    14:00 +34°C° 0 mm 1 m/s 665 mmHg 30%
    15:00 +34°C° 0 mm 1 m/s 665 mmHg 30%
    16:00 +33°C° 0 mm 1 m/s 664 mmHg 31%
    17:00 +32°C° 0.1 mm 1 m/s 664 mmHg 34%
    18:00 +30°C° 0.1 mm 1 m/s 664 mmHg 38%
    19:00 +29°C° 0.1 mm 1 m/s 664 mmHg 41%
    20:00 +28°C° 0 mm 1 m/s 665 mmHg 45%
    21:00 +27°C° 0 mm 1 m/s 665 mmHg 48%
    22:00 +26°C° 0 mm 1 m/s 665 mmHg 52%
    23:00 +25°C° 0 mm 2 m/s 665 mmHg 58%

    Après-demain, 27 Septembre, Jeudi

    Heure Température Précipitation Vent Pression Humidité
    00:00 +25°C° 0 mm 2 m/s 665 mmHg 63%
    01:00 +24°C° 0 mm 3 m/s 664 mmHg 68%
    02:00 +22°C° 0 mm 3 m/s 664 mmHg 73%
    03:00 +21°C° 0 mm 3 m/s 664 mmHg 78%
    04:00 +20°C° 0 mm 2 m/s 663 mmHg 83%
    05:00 +20°C° 0 mm 3 m/s 664 mmHg 82%
    06:00 +21°C° 0 mm 3 m/s 664 mmHg 81%
    07:00 +21°C° 0 mm 3 m/s 665 mmHg 80%
    08:00 +25°C° 0 mm 3 m/s 665 mmHg 67%
    09:00 +28°C° 0 mm 2 m/s 666 mmHg 55%
    10:00 +31°C° 0 mm 2 m/s 667 mmHg 42%
    11:00 +35°C° 0 mm 2 m/s 666 mmHg 36%
    12:00 +37°C° 0 mm 2 m/s 666 mmHg 30%
    13:00 +40°C° 0 mm 1 m/s 666 mmHg 24%
    14:00 +37°C° 0 mm 1 m/s 665 mmHg 26%
    15:00 +36°C° 0 mm 1 m/s 664 mmHg 28%
    16:00 +35°C° 0 mm 2 m/s 663 mmHg 30%
    17:00 +32°C° 0.3 mm 2 m/s 663 mmHg 36%
    18:00 +30°C° 0.3 mm 2 m/s 664 mmHg 42%
    19:00 +28°C° 0.3 mm 2 m/s 664 mmHg 48%
    20:00 +27°C° 0.3 mm 2 m/s 664 mmHg 54%
    21:00 +26°C° 0.3 mm 2 m/s 664 mmHg 60%
    22:00 +25°C° 0.3 mm 1 m/s 665 mmHg 67%
    23:00 +24°C° 0.3 mm 2 m/s 664 mmHg 70%

    28 Septembre, Vendredi

    Heure Température Précipitation Vent Pression Humidité
    00:00 +23°C° 0.3 mm 2 m/s 664 mmHg 73%
    01:00 +22°C° 0.3 mm 3 m/s 663 mmHg 77%
    02:00 +21°C° 0 mm 3 m/s 663 mmHg 80%
    03:00 +20°C° 0 mm 3 m/s 663 mmHg 83%
    04:00 +20°C° 0 mm 3 m/s 663 mmHg 87%
    05:00 +20°C° 0.1 mm 3 m/s 663 mmHg 86%
    06:00 +20°C° 0.1 mm 3 m/s 664 mmHg 85%
    07:00 +20°C° 0.1 mm 3 m/s 665 mmHg 83%
    08:00 +24°C° 0 mm 3 m/s 665 mmHg 71%
    09:00 +27°C° 0 mm 2 m/s 666 mmHg 59%
    10:00 +30°C° 0 mm 2 m/s 666 mmHg 47%
    11:00 +32°C° 0 mm 2 m/s 666 mmHg 40%
    12:00 +36°C° 0 mm 2 m/s 665 mmHg 33%
    13:00 +39°C° 0 mm 2 m/s 665 mmHg 25%
    14:00 +37°C° 0 mm 1 m/s 664 mmHg 26%
    15:00 +36°C° 0 mm 1 m/s 664 mmHg 26%
    16:00 +35°C° 0 mm 1 m/s 663 mmHg 26%
    17:00 +34°C° 0.3 mm 2 m/s 663 mmHg 33%
    18:00 +31°C° 0.3 mm 2 m/s 663 mmHg 39%
    19:00 +29°C° 0.3 mm 3 m/s 663 mmHg 45%
    20:00 +28°C° 0.5 mm 2 m/s 664 mmHg 52%
    21:00 +27°C° 0.5 mm 2 m/s 664 mmHg 58%
    22:00 +26°C° 0.5 mm 2 m/s 665 mmHg 64%
    23:00 +25°C° 0 mm 2 m/s 664 mmHg 69%

    29 Septembre, Samedi

    Heure Température Précipitation Vent Pression Humidité
    00:00 +24°C° 0 mm 3 m/s 664 mmHg 73%
    01:00 +22°C° 0 mm 3 m/s 663 mmHg 77%
    02:00 +21°C° 0.2 mm 3 m/s 663 mmHg 81%
    03:00 +20°C° 0.2 mm 2 m/s 663 mmHg 84%
    04:00 +20°C° 0.2 mm 2 m/s 663 mmHg 88%
    05:00 +20°C° 0.1 mm 2 m/s 664 mmHg 86%
    06:00 +20°C° 0.1 mm 2 m/s 665 mmHg 84%
    07:00 +21°C° 0.1 mm 1 m/s 665 mmHg 83%
    08:00 +25°C° 0 mm 2 m/s 666 mmHg 70%
    09:00 +28°C° 0 mm 2 m/s 666 mmHg 57%
    10:00 +31°C° 0 mm 2 m/s 667 mmHg 45%
    11:00 +34°C° 0 mm 2 m/s 666 mmHg 39%
    12:00 +36°C° 0 mm 2 m/s 666 mmHg 34%
    13:00 +38°C° 0 mm 2 m/s 665 mmHg 29%
    14:00 +37°C° 0 mm 2 m/s 665 mmHg 30%
    15:00 +35°C° 0 mm 2 m/s 664 mmHg 32%
    16:00 +34°C° 0 mm 2 m/s 664 mmHg 34%
    17:00 +32°C° 0.3 mm 2 m/s 664 mmHg 40%
    18:00 +30°C° 0.3 mm 2 m/s 665 mmHg 46%
    19:00 +28°C° 0.3 mm 3 m/s 665 mmHg 52%
    20:00 +27°C° 3.2 mm 2 m/s 665 mmHg 61%
    21:00 +25°C° 3.2 mm 2 m/s 666 mmHg 70%
    22:00 +24°C° 3.2 mm 2 m/s 666 mmHg 78%
    23:00 +23°C° 0.5 mm 2 m/s 665 mmHg 81%

    30 Septembre, Dimanche

    Heure Température Précipitation Vent Pression Humidité
    00:00 +22°C° 0.5 mm 3 m/s 665 mmHg 83%
    01:00 +21°C° 0.5 mm 3 m/s 664 mmHg 86%
    02:00 +21°C° 0.1 mm 3 m/s 664 mmHg 87%
    03:00 +20°C° 0.1 mm 2 m/s 664 mmHg 89%
    04:00 +20°C° 0.1 mm 2 m/s 664 mmHg 90%
    05:00 +20°C° 0 mm 2 m/s 664 mmHg 89%
    06:00 +20°C° 0 mm 2 m/s 665 mmHg 87%
    07:00 +21°C° 0 mm 2 m/s 665 mmHg 86%
    08:00 +24°C° 0 mm 2 m/s 666 mmHg 74%
    09:00 +27°C° 0 mm 2 m/s 666 mmHg 62%
    10:00 +30°C° 0 mm 2 m/s 667 mmHg 51%
    11:00 +32°C° 0 mm 2 m/s 667 mmHg 44%
    12:00 +34°C° 0 mm 1 m/s 666 mmHg 37%
    13:00 +37°C° 0 mm 1 m/s 666 mmHg 30%
    14:00 +35°C° 0 mm 1 m/s 665 mmHg 33%
    15:00 +33°C° 0 mm 1 m/s 664 mmHg 36%
    16:00 +32°C° 0 mm 1 m/s 664 mmHg 39%
    17:00 +30°C° 0.2 mm 1 m/s 664 mmHg 45%
    18:00 +29°C° 0.2 mm 1 m/s 664 mmHg 50%
    19:00 +27°C° 0.2 mm 2 m/s 664 mmHg 56%
    20:00 +26°C° 0.1 mm 2 m/s 664 mmHg 59%
    21:00 +25°C° 0.1 mm 2 m/s 665 mmHg 62%
    22:00 +24°C° 0.1 mm 3 m/s 665 mmHg 65%
    23:00 +22°C° 0.4 mm 3 m/s 664 mmHg 71%
    Voir plus